User: anonymous   Login
Location: Unspecified
(0.0000°N, 0.0000°E)
Time: 11:27:09
(UTC+00:00)
Language:

COSMOS 2471 (GLONASS) - Orbit

View from above orbital plane
View from above orbital plane
View from above satellite
View from above satellite

Ground track
Ground track

The orbit data is extracted from the following two-line orbital elements,

1 37372U 11009A   22274.10010406 -.00000063  00000-0  00000+0 0  9991
2 37372  65.9398 359.8700 0018409 230.2859 319.6303  2.13061029 90218
Epoch (UTC): 01 October 2022 02:24:08
Eccentricity: 0.0018409
inclination: 65.9398°
perigee height: 19086 km
apogee height: 19180 km
right ascension of ascending node: 359.8700°
argument of perigee: 230.2859°
revolutions per day: 2.13061029
mean anomaly at epoch: 319.6303°
orbit number at epoch: 9021

The dashed part of the orbit path shows where the satellite is in the earth's shadow,  

DLR